Flag for Lithuania Weather past 2 weeks in Kaunas, Lithuania

Now
52 °F

Overcast.


Feels Like: 49 °F
Forecast: 50 / 63 °F
Wind: 8 mph from West

Location: Kaunas

Current Time: Aug 28, 2014 at 2:30:17 AM

Latest Report: Aug 28, 2014 at 1:50 AM


Visibility: N/A

Pressure: 29.74 "Hg

Humidity: 88%

Dew point: 48 °F

Location of KaunasLocation

Historic Weather in Kaunas — Graph

°F

Kaunas temperature yesterday

Maximum temperature yesterday: 64 °F (at 3:50 PM)
Minimum temperature yesterday: 46 °F (at 1:50 AM)
Average temperature yesterday: 54 °F

Past Weeks' High & Low Weather Summary

 TemperatureHumidityPressure
High77 °F (Aug 13, 3:50 PM)100% (Aug 24, 1:20 AM)30.01 "Hg (Aug 24, 1:20 AM)
Low45 °F (Aug 22, 3:50 AM)31% (Aug 13, 5:20 PM)29.50 "Hg (Aug 14, 10:20 AM)
Average59 °F73%29.79 "Hg
* Reported Aug 13 1:20 AM — Aug 28 1:20 AM, Kaunas, Weather by CustomWeather, © 2014

Note: Actual official high and low records may vary slightly from our data, if they occured in-between our weather recording intervals... More about our weather records

Advertising

Kaunas weather history for previous 24 hours

 ConditionsComfort  
Time TempWeatherWind HumidityBarometerVisibility
1:20 AM
Aug 28
52 °FPassing clouds.8 mph88%29.74 "HgN/A
12:50 AM52 °FCool.7 mph88%29.74 "HgN/A
12:20 AM54 °FCool.8 mph82%29.74 "HgN/A
11:50 PM
Aug 27
54 °FClear.9 mph88%29.71 "Hg10 mi
11:20 PM54 °FClear.8 mph88%29.71 "Hg10 mi
10:50 PM54 °FPassing clouds.7 mph88%29.71 "HgN/A
10:20 PM54 °FClear.7 mph88%29.71 "Hg10 mi
9:50 PM54 °FPassing clouds.8 mph88%29.71 "HgN/A
8:50 PM55 °FScattered clouds.7 mph88%29.71 "HgN/A
8:20 PM57 °FScattered clouds.6 mph82%29.68 "HgN/A
7:50 PM57 °FScattered clouds.8 mph82%29.68 "HgN/A
7:20 PM59 °FSprinkles. Broken clouds.9 mph82%29.65 "HgN/A
6:50 PM59 °FSprinkles. Broken clouds.12 mph88%29.65 "Hg6 mi
5:50 PM61 °FSprinkles. More clouds than sun.8 mph83%29.65 "Hg6 mi
5:20 PM57 °FScattered showers. Broken clouds.10 mph88%29.65 "HgN/A
4:50 PM59 °FSprinkles. Cloudy.14 mph82%29.62 "HgN/A
4:20 PM64 °FScattered showers. Broken clouds.9 mph68%29.62 "HgN/A
3:50 PM64 °FBroken clouds.9 mph68%29.62 "HgN/A
3:20 PM61 °FOvercast.10 mph72%29.62 "HgN/A
2:50 PM61 °FMostly cloudy.12 mph72%29.62 "HgN/A
2:20 PM61 °FMostly cloudy.12 mph72%29.62 "HgN/A
1:20 PM57 °FSprinkles. Cloudy.17 mph77%29.62 "HgN/A
12:50 PM59 °FMostly cloudy.13 mph68%29.62 "HgN/A
12:20 PM59 °FMostly cloudy.15 mph68%29.62 "HgN/A
11:50 AM59 °FMostly cloudy.14 mph68%29.59 "HgN/A
11:20 AM57 °FOvercast.15 mph72%29.59 "HgN/A
10:50 AM57 °FLight rain. Mostly cloudy.14 mph77%29.62 "HgN/A
10:20 AM57 °FMore clouds than sun.12 mph77%29.59 "HgN/A
9:50 AM57 °FMostly cloudy.13 mph77%29.62 "HgN/A
9:20 AM55 °FBroken clouds.12 mph77%29.62 "HgN/A
8:50 AM55 °FScattered clouds.10 mph77%29.59 "HgN/A
8:20 AM54 °FBroken clouds.7 mph82%29.62 "HgN/A
7:50 AM52 °FPassing clouds.8 mph82%29.62 "HgN/A
7:20 AM50 °FPassing clouds.8 mph88%29.62 "HgN/A
6:50 AM50 °FPassing clouds.8 mph82%29.62 "HgN/A
6:20 AM48 °FPassing clouds.7 mph87%29.62 "HgN/A
5:50 AM48 °FPartly cloudy.6 mph87%29.62 "HgN/A
5:20 AM48 °FPassing clouds.7 mph87%29.62 "HgN/A
4:50 AM48 °FPassing clouds.6 mph87%29.65 "HgN/A
4:20 AM46 °FPassing clouds.6 mph93%29.65 "HgN/A
3:50 AM48 °FPassing clouds.6 mph87%29.65 "HgN/A
3:20 AM46 °FCool.3 mph87%29.65 "HgN/A
2:50 AM46 °FCool.No wind93%29.65 "HgN/A
2:20 AM46 °FCool.No wind87%29.65 "HgN/A
Weather by CustomWeather, © 2014

See weather overviewHow to use our weather pages